Wind_Speed
11 11 11 11 11 10 10 10 10 9 9 9 9 8 8 7 6 5 5 4 4 4 3 3 2 2 2 2 3 3 4 5 5 6 7 7 7 8 8 8 9 9 9
14 14 14 13 13 12 12 11 11 10 10 10 10 9 8 8 7 7 6 6 5 5 5 4 4 3 3 4 4 4 5 5 6 6 7 8 8 8 8 9 9 10 10
16 16 16 16 15 15 14 14 13 12 11 11 11 10 10 9 8 7 7 7 6 6 6 6 5 5 4 5 5 5 5 6 6 7 8 8 9 9 9 10 10 10 11
19 18 18 17 17 17 16 16 15 14 13 13 12 12 11 10 10 9 9 8 8 7 7 7 7 6 6 6 6 6 6 6 7 8 8 9 10 10 10 11 11 12 12
21 21 20 20 19 19 18 17 17 16 16 15 14 14 13 12 12 11 10 9 9 9 9 8 8 8 8 8 8 8 8 8 8 9 9 10 11 12 12 12 13 13 14
23 23 22 22 21 21 20 19 19 18 18 17 17 16 15 14 13 12 12 11 10 10 10 10 10 10 10 10 10 9 9 10 10 10 10 12 13 13 13 14 14 14 15
26 25 25 24 24 23 22 22 21 21 20 19 18 18 17 16 15 14 13 13 12 12 12 11 11 12 11 11 11 11 11 11 11 11 12 13 14 15 15 16 16 16 16
28 28 28 27 26 25 25 24 24 23 22 21 20 20 19 18 17 16 15 15 14 13 13 13 13 13 13 13 13 13 13 13 13 13 14 15 16 16 17 17 17 18 19
31 30 30 30 29 28 27 27 26 26 25 23 22 22 21 20 19 18 17 17 16 15 15 15 15 15 15 15 16 16 15 15 15 15 16 17 18 18 19 19 20 20 21
33 32 32 32 31 30 30 30 29 28 27 25 25 24 23 22 21 20 19 18 18 18 17 17 17 17 17 17 17 18 17 17 17 18 18 19 19 20 21 21 21 22 22
34 34 34 33 33 32 32 31 31 30 29 27 27 26 25 24 23 23 22 21 20 20 20 19 19 19 19 19 19 19 19 19 19 20 20 21 21 22 23 23 23 23 24
35 35 36 35 34 33 33 32 31 30 29 29 28 28 28 27 26 25 24 24 23 22 22 22 21 22 21 21 21 21 21 21 21 21 22 22 23 23 24 24 24 25 25
37 36 36 36 35 34 33 32 32 31 30 30 30 29 29 28 28 27 26 25 25 25 24 24 23 23 23 23 23 22 23 23 23 23 23 23 24 24 25 25 26 26 27
37 37 36 36 35 34 33 33 33 32 32 31 31 30 30 30 30 29 28 27 27 26 26 26 25 24 24 25 24 24 25 25 25 25 25 25 26 26 27 27 28 28 29
39 38 37 37 37 36 35 34 34 34 33 32 31 31 32 32 31 30 30 29 28 28 28 27 27 27 26 26 26 26 26 27 27 27 27 27 28 29 29 29 30 31 32
40 39 38 38 38 37 35 35 34 34 34 33 33 33 33 32 32 32 31 31 30 29 29 29 29 29 29 28 27 28 28 28 29 29 29 29 29 30 31 31 32 33 34
40 40 40 40 39 38 36 35 35 35 35 34 34 34 34 33 33 33 32 32 32 31 31 31 31 30 31 31 30 29 29 29 30 30 31 31 32 33 33 34 34 35 36
42 41 41 41 40 39 38 37 37 36 35 35 35 35 34 34 34 34 33 33 33 33 33 33 32 32 32 32 32 31 30 31 32 32 33 34 34 34 35 36 36 37 38
43 42 42 42 41 40 39 38 38 37 37 36 36 35 35 35 35 35 34 34 35 34 34 35 34 33 34 34 34 33 33 34 34 34 35 36 36 37 37 38 38 39 39
44 43 43 43 42 42 40 40 39 38 38 37 37 36 35 35 35 36 36 36 36 36 36 36 35 35 35 35 35 35 36 37 37 37 37 37 37 38 39 39 39 39 39
44 43 43 43 43 42 42 41 40 39 38 38 37 37 36 36 36 37 37 36 36 37 37 37 37 36 36 37 37 37 37 37 38 39 38 38 39 39 40 40 40 40 41
43 43 43 43 43 42 42 42 42 40 40 39 38 37 37 38 37 37 37 36 37 37 38 38 39 39 39 38 38 38 39 39 39 39 39 40 40 40 40 40 41 41 42
42 42 43 42 42 42 43 43 42 41 41 40 39 39 38 39 39 38 38 38 38 38 39 40 40 40 40 40 40 40 41 41 41 40 40 41 41 41 42 42 42 42 43
40 41 42 42 43 42 41 41 43 42 41 41 41 40 40 40 39 40 40 40 40 40 40 41 41 41 41 41 41 42 42 43 43 43 43 43 43 43 43 43 43 43 43
38 39 40 41 42 42 41 41 42 42 42 42 42 41 40 40 41 41 42 42 41 40 41 42 42 42 42 43 43 42 43 44 44 45 44 44 44 44 43 43 43 43 44
37 38 40 40 42 42 42 42 41 42 42 42 42 43 43 41 41 41 42 42 41 41 42 43 43 44 44 43 44 43 44 44 45 46 46 46 45 44 43 43 44 44 45
Wind_Direction
239 241 242 242 243 243 242 241 241 242 244 244 245 245 244 247 248 250 249 246 247 252 260 264 263 280 299 315 321 330 332 334 337 337 338 339 340 339 339 336 333 332 332
242 245 246 245 246 246 245 244 243 243 244 243 246 248 249 251 252 250 247 245 244 250 257 265 266 271 282 299 304 314 319 323 325 327 330 331 332 332 333 332 331 329 328
243 244 246 246 247 247 247 246 244 243 245 246 248 247 250 251 252 250 248 246 245 249 256 262 267 270 278 291 295 303 308 315 319 321 325 328 329 330 330 328 327 327 326
246 245 246 246 248 249 249 248 246 245 246 248 249 249 250 251 250 249 249 249 250 253 258 261 264 271 278 286 290 295 302 309 313 315 320 322 324 324 323 323 323 322 320
247 247 248 247 248 249 250 249 248 247 247 248 249 250 250 251 250 249 250 252 254 256 258 261 264 270 277 283 284 288 297 302 306 307 312 316 317 318 316 316 317 317 316
247 248 250 249 249 250 250 250 248 247 248 249 249 250 249 249 249 248 249 253 255 258 261 264 267 269 274 278 279 282 292 298 300 303 307 311 314 315 314 313 313 313 313
249 249 250 250 249 250 250 250 250 248 248 249 249 248 249 248 248 249 251 253 256 258 262 266 268 268 270 274 279 281 284 293 294 297 302 306 309 311 311 310 309 309 309
250 249 249 249 249 249 250 250 249 249 248 248 248 247 247 247 247 249 252 253 256 260 261 264 266 267 270 272 278 282 283 287 291 294 297 301 305 307 307 307 306 306 305
251 250 250 248 249 249 250 250 250 249 249 247 247 246 245 245 247 250 252 254 257 260 261 263 266 268 270 272 275 278 281 283 288 292 295 298 302 303 304 303 303 303 303
250 251 251 249 248 249 249 249 249 248 247 246 246 245 245 245 247 249 252 254 256 259 261 263 266 268 271 273 274 277 280 282 286 290 293 296 299 301 302 302 302 302 302
249 249 250 250 249 249 249 248 248 247 245 245 245 246 246 246 247 248 251 254 256 259 262 263 266 268 271 274 275 277 281 283 286 289 292 295 297 299 299 300 300 300 301
249 248 248 249 248 248 248 247 247 246 245 244 245 246 246 247 248 249 251 254 257 260 262 264 267 269 271 273 275 278 281 283 285 289 292 294 296 297 298 298 299 299 300
249 249 249 248 247 247 248 248 248 247 246 245 246 246 246 247 248 249 251 254 257 260 262 265 267 268 270 272 275 278 280 283 284 288 291 292 293 295 296 296 297 298 299
249 248 248 247 245 246 248 248 248 248 247 248 248 247 247 248 249 249 252 254 256 259 262 264 266 269 270 271 274 278 281 283 285 286 288 291 292 293 295 295 295 296 297
247 247 247 246 245 245 246 248 248 248 248 248 248 249 249 249 249 251 252 254 255 258 262 264 266 268 271 273 275 278 281 284 287 286 286 289 291 293 294 294 295 295 297
246 245 243 243 245 245 245 246 247 247 248 248 248 249 250 251 251 251 252 253 256 259 261 263 266 268 270 273 277 279 281 283 285 287 286 288 290 292 293 293 295 296 296
245 243 241 242 244 245 244 245 247 248 248 248 249 250 250 251 252 252 252 254 256 258 261 263 265 268 271 274 277 279 280 283 285 286 287 288 289 291 293 294 295 296 296
243 242 241 242 243 244 244 245 247 248 249 249 249 250 251 252 253 254 255 255 256 258 259 263 266 269 272 274 276 279 281 283 285 286 288 288 289 291 292 293 295 296 296
243 242 241 242 243 244 244 245 247 248 249 249 249 250 250 251 252 254 254 256 256 257 260 262 266 270 272 273 276 278 281 283 285 287 288 289 290 292 293 294 295 295 295
243 243 243 242 242 242 243 245 246 248 248 248 249 250 250 250 252 253 254 256 257 258 260 262 265 268 271 274 276 279 282 283 285 288 289 290 291 292 293 293 295 295 295
242 242 241 241 242 242 242 244 245 248 248 247 249 250 250 251 252 253 254 255 257 260 261 262 264 267 271 274 276 279 282 284 286 288 289 289 290 291 292 294 295 295 296
241 240 241 241 241 241 241 243 245 247 248 248 249 251 252 253 253 254 254 255 257 260 262 263 265 267 270 274 277 279 281 283 285 287 288 289 290 291 292 293 294 295 295
239 239 239 239 239 239 241 243 244 246 247 248 249 251 253 254 254 254 255 256 258 262 263 264 265 267 270 273 277 280 281 282 284 286 288 290 290 290 291 292 293 294 295
238 239 238 238 238 239 241 243 244 246 247 248 250 251 253 254 256 257 256 257 259 263 264 265 266 268 271 274 277 279 282 284 286 286 287 289 290 290 291 291 292 293 293
238 238 238 238 238 238 241 243 244 246 247 248 249 251 252 253 256 258 260 261 261 264 266 266 267 269 272 274 276 279 281 284 285 287 287 289 289 289 290 291 292 292 293
237 236 237 237 237 238 241 244 245 246 247 249 250 251 252 255 258 259 261 261 262 265 267 268 268 271 273 274 276 278 281 284 285 286 287 288 289 289 290 290 291 292 294
Height
5852 5852 5853 5854 5855 5855 5856 5856 5857 5858 5858 5859 5859 5859 5859 5860 5860 5860 5861 5861 5861 5861 5861 5861 5861 5861 5861 5861 5861 5861 5861 5860 5860 5860 5859 5859 5858 5857 5857 5856 5855 5855 5854
5850 5850 5851 5852 5853 5853 5854 5855 5855 5856 5856 5857 5857 5857 5858 5858 5859 5859 5859 5860 5860 5860 5860 5861 5861 5861 5861 5860 5860 5860 5860 5860 5859 5859 5859 5858 5857 5857 5856 5855 5854 5853 5852
5847 5848 5849 5850 5850 5851 5852 5852 5853 5854 5854 5855 5855 5856 5856 5857 5857 5858 5858 5859 5859 5859 5859 5860 5860 5860 5859 5859 5859 5859 5859 5858 5858 5858 5858 5857 5856 5855 5854 5854 5853 5852 5851
5844 5845 5845 5847 5848 5848 5849 5850 5850 5851 5852 5852 5853 5854 5854 5855 5855 5856 5857 5857 5858 5858 5858 5858 5858 5858 5858 5858 5858 5858 5857 5857 5857 5857 5856 5856 5855 5854 5853 5852 5851 5850 5849
5840 5841 5842 5843 5844 5845 5846 5847 5848 5848 5849 5850 5851 5851 5852 5853 5853 5854 5854 5855 5856 5856 5856 5857 5857 5857 5857 5857 5856 5856 5856 5856 5855 5855 5855 5854 5853 5852 5851 5850 5849 5848 5847
5836 5837 5838 5839 5840 5841 5843 5844 5844 5845 5846 5847 5847 5848 5849 5850 5851 5852 5852 5853 5853 5854 5854 5855 5855 5855 5855 5855 5855 5854 5854 5854 5853 5853 5853 5852 5851 5850 5849 5848 5847 5846 5845
5831 5832 5834 5835 5836 5837 5838 5839 5840 5841 5842 5843 5844 5845 5846 5847 5848 5849 5850 5850 5851 5851 5852 5852 5852 5852 5853 5853 5853 5852 5852 5851 5851 5851 5850 5850 5849 5848 5847 5846 5844 5843 5842
5825 5827 5828 5830 5831 5832 5833 5834 5836 5837 5838 5839 5840 5841 5842 5843 5845 5846 5846 5847 5848 5849 5849 5849 5850 5850 5850 5850 5850 5850 5849 5849 5848 5848 5848 5847 5846 5845 5844 5843 5841 5840 5839
5819 5821 5822 5824 5825 5827 5828 5829 5830 5831 5833 5834 5835 5837 5838 5840 5841 5842 5843 5844 5845 5846 5846 5846 5847 5847 5847 5847 5847 5847 5846 5845 5845 5845 5844 5843 5842 5841 5840 5839 5838 5836 5835
5813 5814 5816 5818 5819 5821 5822 5823 5824 5826 5827 5829 5830 5832 5833 5835 5836 5838 5839 5840 5841 5842 5842 5843 5843 5844 5843 5843 5843 5843 5842 5842 5842 5841 5841 5840 5839 5837 5836 5835 5833 5832 5830
5806 5808 5809 5811 5812 5814 5815 5816 5818 5819 5821 5823 5825 5826 5828 5830 5832 5833 5834 5836 5837 5838 5838 5839 5839 5840 5840 5839 5839 5839 5839 5838 5838 5837 5836 5835 5834 5833 5832 5830 5829 5827 5826
5798 5800 5801 5803 5805 5806 5808 5809 5811 5813 5815 5817 5819 5820 5822 5824 5826 5828 5829 5831 5832 5833 5834 5834 5835 5835 5835 5835 5835 5835 5834 5834 5834 5833 5832 5831 5830 5828 5827 5825 5824 5822 5820
5789 5791 5793 5794 5797 5799 5800 5802 5804 5806 5808 5810 5812 5814 5816 5818 5820 5822 5824 5825 5827 5828 5829 5829 5830 5830 5830 5830 5830 5830 5830 5829 5829 5828 5827 5826 5825 5823 5822 5820 5819 5817 5815
5780 5782 5784 5786 5789 5791 5793 5795 5797 5800 5802 5804 5806 5808 5810 5812 5814 5816 5818 5819 5821 5822 5823 5824 5824 5825 5825 5825 5825 5825 5825 5824 5824 5823 5822 5821 5819 5818 5816 5815 5813 5811 5809
5770 5773 5775 5778 5780 5783 5786 5788 5790 5793 5795 5797 5799 5801 5803 5805 5807 5809 5811 5813 5814 5816 5817 5818 5819 5819 5820 5820 5820 5820 5819 5819 5818 5817 5816 5815 5813 5812 5810 5808 5807 5805 5803
5760 5763 5766 5769 5772 5775 5778 5780 5783 5785 5788 5790 5792 5794 5795 5798 5800 5802 5804 5806 5808 5809 5811 5812 5813 5813 5813 5814 5814 5813 5813 5812 5811 5810 5809 5808 5807 5805 5803 5802 5800 5797 5795
5750 5753 5757 5761 5764 5767 5770 5773 5775 5777 5780 5782 5784 5786 5788 5790 5792 5795 5797 5799 5801 5802 5804 5805 5806 5806 5807 5807 5807 5807 5806 5805 5804 5803 5802 5801 5800 5798 5796 5794 5792 5790 5787
5740 5744 5748 5752 5755 5759 5762 5765 5767 5769 5772 5774 5776 5778 5780 5782 5784 5787 5789 5791 5793 5795 5797 5798 5799 5799 5800 5800 5800 5800 5799 5798 5797 5796 5795 5794 5792 5790 5788 5786 5784 5781 5779
5730 5735 5739 5743 5747 5750 5754 5756 5759 5761 5764 5766 5768 5770 5772 5774 5776 5779 5781 5784 5785 5787 5789 5790 5792 5792 5792 5792 5792 5792 5791 5791 5789 5788 5787 5785 5784 5782 5780 5777 5775 5772 5769
5720 5725 5730 5734 5737 5741 5745 5748 5751 5753 5755 5757 5760 5762 5764 5766 5769 5771 5773 5775 5778 5780 5781 5782 5783 5784 5784 5784 5785 5785 5784 5783 5781 5780 5779 5777 5775 5773 5771 5768 5766 5763 5760
5709 5714 5719 5724 5728 5732 5735 5739 5742 5745 5747 5749 5752 5754 5756 5759 5761 5763 5765 5767 5770 5771 5772 5773 5775 5776 5776 5776 5777 5776 5776 5775 5773 5772 5770 5768 5766 5764 5761 5759 5756 5754 5751
5698 5703 5709 5714 5718 5722 5726 5730 5734 5736 5739 5742 5744 5747 5749 5751 5753 5755 5757 5759 5762 5763 5764 5765 5766 5767 5768 5767 5768 5767 5767 5767 5765 5763 5761 5759 5757 5755 5752 5750 5747 5744 5741
5688 5694 5699 5704 5708 5713 5717 5721 5724 5727 5730 5733 5736 5739 5741 5743 5745 5747 5749 5751 5753 5754 5755 5756 5757 5758 5759 5758 5758 5758 5757 5757 5757 5756 5753 5751 5748 5746 5743 5741 5738 5735 5732
5679 5684 5689 5695 5700 5704 5708 5711 5715 5718 5722 5725 5728 5731 5733 5735 5737 5739 5741 5743 5745 5745 5746 5747 5748 5749 5749 5749 5749 5748 5747 5746 5745 5746 5745 5742 5739 5736 5734 5731 5728 5725 5722
5669 5675 5681 5686 5690 5695 5699 5703 5707 5710 5713 5716 5719 5722 5724 5726 5728 5730 5732 5734 5735 5736 5737 5737 5738 5739 5739 5739 5739 5739 5737 5736 5734 5733 5733 5732 5729 5726 5723 5720 5717 5714 5711
5662 5667 5672 5677 5681 5685 5690 5694 5698 5701 5704 5707 5710 5712 5715 5718 5720 5722 5723 5724 5726 5727 5727 5728 5728 5729 5729 5729 5729 5728 5727 5726 5725 5723 5721 5720 5719 5716 5713 5710 5707 5704 5701